Home   Weather   Fürstenfeld   Past weeks

Flag for Austria Past Weather in Fürstenfeld, Styria, Austria — Yesterday and Last 2 Weeks

Now
39 °F

Fog.


Feels Like: 39 °F
Forecast: 33 / 60 °F
Wind: 1 mph from Southeast

Location: Murska Sobota

Current Time: Apr 29, 2017 at 6:05:35 am

Latest Report: Apr 29, 2017 at 5:00 am


Visibility: N/A

Pressure: 30.05 "Hg

Humidity: 98%

Dew Point: 39 °F

Location of FürstenfeldLocation

Past Weather in Fürstenfeld — Graph

°F

Fürstenfeld Temperature Yesterday

Maximum temperature yesterday: 46 °F (at 5:00 pm)
Minimum temperature yesterday: 43 °F (at 11:00 pm)
Average temperature yesterday: 44 °F

High & Low Weather Summary for the Past Weeks

 TemperatureHumidityPressure
High68 °F (Apr 25, 2:00 pm)98% (Apr 29, 4:00 am)30.47 "Hg (Apr 29, 4:00 am)
Low25 °F (Apr 21, 6:00 am)29% (Apr 21, 6:00 pm)29.74 "Hg (Apr 28, 6:00 am)
Average50 °F66%30.02 "Hg
* Reported Apr 14 4:00 am — Apr 29 4:00 am, Fürstenfeld, Weather by CustomWeather, © 2017

Note: Actual official high and low records may vary slightly from our data, if they occured in-between our weather recording intervals... More about our weather records

Advertising

Fürstenfeld Weather History for the Previous 24 Hours

Scroll right to see more
 ConditionsComfort  
Time TempWeatherWind HumidityBarometerVisibility
4:00 am
Sat, Apr 29
40 °FFog.1 mph98%30.03 "HgN/A
3:00 am38 °FFog.1 mph97%30.01 "HgN/A
2:00 am40 °FFog.1 mph97%29.99 "HgN/A
1:00 am42 °FOvercast.No wind97%29.98 "HgN/A
12:00 am42 °FOvercast.1 mph97%29.97 "HgN/A
11:00 pm
Fri, Apr 28
43 °FOvercast.1 mph96%29.95 "HgN/A
10:00 pm44 °FOvercast.1 mph94%29.93 "HgN/A
9:00 pm45 °FOvercast.2 mph90%29.90 "HgN/A
8:00 pm45 °FOvercast.2 mph90%29.86 "HgN/A
7:00 pm45 °FOvercast.3 mph89%29.82 "HgN/A
6:00 pm46 °FOvercast.3 mph90%29.80 "HgN/A
5:00 pm46 °FOvercast.2 mph92%29.78 "HgN/A
4:00 pm45 °FOvercast.3 mph92%29.77 "HgN/A
3:00 pm45 °FRain. Overcast.1 mph89%29.79 "HgN/A
2:00 pm44 °FRain. Overcast.3 mph93%29.79 "HgN/A
1:00 pm43 °FRain. Overcast.3 mph93%29.75 "HgN/A
12:00 pm44 °FRain. Overcast.3 mph93%29.76 "HgN/A
11:00 am44 °FRain. Overcast.2 mph93%29.75 "HgN/A
10:00 am44 °FDrizzle. Overcast.3 mph94%29.74 "HgN/A
9:00 am43 °FRain. Overcast.3 mph95%29.75 "HgN/A
8:00 am43 °FLight rain. Overcast.1 mph96%29.76 "Hg1 mi
7:00 am43 °FDrizzle. Overcast.2 mph96%29.74 "HgN/A
6:00 am43 °FLight rain. Overcast.1 mph96%29.74 "HgN/A
Weather by CustomWeather, © 2017

See weather overviewHow to use our weather pages